When you browse on this site, cookies collect data to enhance your experience and personalize the content and advertising you see.
Visit our Privacy Policy to learn more. By continuing to use the site, you agree to this use of cookies and data.
EN

Hourly Weather Dikhil

Today, 11 August, Tuesday

Time Temperature Precipitation Wind Pressure Humidity
00:00 +34°C° 0 mm 2 mps 714 mmHg 51%
01:00 +34°C° 0 mm 3 mps 714 mmHg 52%
02:00 +33°C° 0 mm 3 mps 714 mmHg 54%
03:00 +33°C° 0 mm 3 mps 713 mmHg 55%
04:00 +33°C° 0 mm 3 mps 714 mmHg 56%
05:00 +31°C° 0 mm 3 mps 714 mmHg 57%
06:00 +31°C° 0 mm 3 mps 714 mmHg 58%
07:00 +32°C° 0 mm 4 mps 715 mmHg 55%
08:00 +33°C° 0 mm 5 mps 715 mmHg 52%
09:00 +34°C° 0 mm 6 mps 715 mmHg 50%
10:00 +35°C° 0 mm 6 mps 715 mmHg 45%
11:00 +36°C° 0 mm 6 mps 715 mmHg 41%
12:00 +39°C° 0 mm 6 mps 715 mmHg 36%
13:00 +39°C° 0 mm 7 mps 714 mmHg 34%
14:00 +40°C° 0 mm 7 mps 714 mmHg 32%
15:00 +41°C° 0 mm 7 mps 713 mmHg 29%
16:00 +40°C° 0 mm 7 mps 713 mmHg 31%
17:00 +40°C° 0 mm 6 mps 713 mmHg 33%
18:00 +39°C° 0 mm 6 mps 713 mmHg 34%
19:00 +39°C° 0 mm 6 mps 713 mmHg 37%
20:00 +37°C° 0 mm 5 mps 713 mmHg 39%
21:00 +36°C° 0 mm 4 mps 714 mmHg 42%
22:00 +36°C° 0 mm 4 mps 714 mmHg 43%
23:00 +35°C° 0 mm 3 mps 714 mmHg 45%

Tomorrow, 12 August, Wednesday

Time Temperature Precipitation Wind Pressure Humidity
00:00 +34°C° 0 mm 2 mps 714 mmHg 46%
01:00 +34°C° 0 mm 2 mps 713 mmHg 48%
02:00 +33°C° 0 mm 1 mps 713 mmHg 50%
03:00 +32°C° 0 mm 1 mps 713 mmHg 52%
04:00 +32°C° 0 mm 2 mps 713 mmHg 52%
05:00 +32°C° 0 mm 2 mps 714 mmHg 53%
06:00 +33°C° 0 mm 3 mps 714 mmHg 53%
07:00 +33°C° 0 mm 4 mps 714 mmHg 48%
08:00 +34°C° 0 mm 4 mps 714 mmHg 44%
09:00 +35°C° 0 mm 5 mps 715 mmHg 40%
10:00 +36°C° 0 mm 5 mps 715 mmHg 36%
11:00 +37°C° 0 mm 5 mps 714 mmHg 33%
12:00 +39°C° 0 mm 6 mps 714 mmHg 29%
13:00 +40°C° 0 mm 5 mps 714 mmHg 27%
14:00 +40°C° 0 mm 5 mps 713 mmHg 25%
15:00 +41°C° 0 mm 5 mps 712 mmHg 23%
16:00 +41°C° 0 mm 4 mps 712 mmHg 24%
17:00 +41°C° 0 mm 4 mps 712 mmHg 25%
18:00 +41°C° 0 mm 4 mps 712 mmHg 26%
19:00 +39°C° 0 mm 3 mps 713 mmHg 28%
20:00 +38°C° 0 mm 3 mps 713 mmHg 30%
21:00 +38°C° 0 mm 2 mps 714 mmHg 33%
22:00 +37°C° 0 mm 2 mps 714 mmHg 35%
23:00 +37°C° 0 mm 2 mps 713 mmHg 37%

Day after tomorrow, 13 August, Thursday

Time Temperature Precipitation Wind Pressure Humidity
00:00 +35°C° 0 mm 1 mps 713 mmHg 38%
01:00 +34°C° 0 mm 1 mps 713 mmHg 41%
02:00 +34°C° 0 mm 1 mps 713 mmHg 43%
03:00 +33°C° 0 mm 1 mps 712 mmHg 45%
04:00 +34°C° 0 mm 2 mps 712 mmHg 45%
05:00 +32°C° 0 mm 2 mps 713 mmHg 45%
06:00 +33°C° 0 mm 3 mps 713 mmHg 45%
07:00 +34°C° 0 mm 4 mps 713 mmHg 41%
08:00 +35°C° 0 mm 5 mps 714 mmHg 37%
09:00 +36°C° 0 mm 5 mps 714 mmHg 34%
10:00 +37°C° 0 mm 5 mps 714 mmHg 30%
11:00 +40°C° 0 mm 5 mps 714 mmHg 27%
12:00 +41°C° 0 mm 5 mps 713 mmHg 24%
13:00 +41°C° 0 mm 5 mps 713 mmHg 23%
14:00 +42°C° 0 mm 5 mps 712 mmHg 22%
15:00 +43°C° 0 mm 5 mps 711 mmHg 21%
16:00 +42°C° 0 mm 5 mps 711 mmHg 21%
17:00 +42°C° 0 mm 4 mps 711 mmHg 21%
18:00 +42°C° 0 mm 4 mps 711 mmHg 21%
19:00 +41°C° 0 mm 4 mps 711 mmHg 23%
20:00 +40°C° 0 mm 4 mps 712 mmHg 26%
21:00 +40°C° 0 mm 4 mps 713 mmHg 29%
22:00 +38°C° 0 mm 4 mps 713 mmHg 32%
23:00 +37°C° 0 mm 4 mps 713 mmHg 35%

14 August, Friday

Time Temperature Precipitation Wind Pressure Humidity
00:00 +36°C° 0 mm 4 mps 713 mmHg 38%
01:00 +36°C° 0 mm 3 mps 713 mmHg 38%
02:00 +35°C° 0 mm 2 mps 712 mmHg 38%
03:00 +34°C° 0 mm 1 mps 712 mmHg 38%
04:00 +33°C° 0 mm 1 mps 712 mmHg 38%
05:00 +33°C° 0 mm 1 mps 712 mmHg 38%
06:00 +33°C° 0 mm 1 mps 713 mmHg 38%
07:00 +34°C° 0 mm 3 mps 713 mmHg 40%
08:00 +34°C° 0 mm 5 mps 714 mmHg 41%
09:00 +34°C° 0 mm 6 mps 714 mmHg 42%
10:00 +35°C° 0 mm 7 mps 714 mmHg 40%
11:00 +36°C° 0 mm 7 mps 713 mmHg 38%
12:00 +38°C° 0 mm 7 mps 713 mmHg 36%
13:00 +39°C° 0 mm 6 mps 712 mmHg 34%
14:00 +39°C° 0 mm 5 mps 712 mmHg 32%
15:00 +40°C° 0 mm 5 mps 711 mmHg 30%
16:00 +40°C° 0 mm 4 mps 711 mmHg 29%
17:00 +38°C° 0 mm 3 mps 711 mmHg 29%
18:00 +38°C° 0 mm 2 mps 711 mmHg 28%
19:00 +38°C° 0 mm 2 mps 711 mmHg 30%
20:00 +38°C° 0 mm 2 mps 712 mmHg 31%
21:00 +37°C° 0 mm 2 mps 712 mmHg 33%
22:00 +37°C° 0 mm 2 mps 712 mmHg 35%
23:00 +37°C° 0 mm 2 mps 712 mmHg 36%

15 August, Saturday

Time Temperature Precipitation Wind Pressure Humidity
00:00 +36°C° 0 mm 2 mps 712 mmHg 38%
01:00 +36°C° 0 mm 2 mps 712 mmHg 38%
02:00 +36°C° 0 mm 2 mps 711 mmHg 39%
03:00 +36°C° 0 mm 3 mps 711 mmHg 39%
04:00 +35°C° 0.1 mm 2 mps 711 mmHg 41%
05:00 +34°C° 0.1 mm 2 mps 711 mmHg 42%
06:00 +34°C° 0.1 mm 2 mps 712 mmHg 43%
07:00 +34°C° 0.1 mm 4 mps 712 mmHg 43%
08:00 +34°C° 0.1 mm 6 mps 713 mmHg 43%
09:00 +35°C° 0.1 mm 8 mps 713 mmHg 42%
10:00 +35°C° 0 mm 7 mps 713 mmHg 40%
11:00 +36°C° 0 mm 7 mps 712 mmHg 37%
12:00 +38°C° 0 mm 6 mps 712 mmHg 35%
13:00 +39°C° 0 mm 6 mps 711 mmHg 32%
14:00 +40°C° 0 mm 5 mps 711 mmHg 30%
15:00 +41°C° 0 mm 5 mps 710 mmHg 27%
16:00 +41°C° 0 mm 4 mps 710 mmHg 27%
17:00 +39°C° 0 mm 3 mps 710 mmHg 26%
18:00 +39°C° 0 mm 2 mps 710 mmHg 26%
19:00 +39°C° 0.1 mm 2 mps 710 mmHg 28%
20:00 +38°C° 0.1 mm 2 mps 711 mmHg 30%
21:00 +38°C° 0.1 mm 2 mps 711 mmHg 31%
22:00 +37°C° 0 mm 2 mps 711 mmHg 34%
23:00 +36°C° 0 mm 2 mps 711 mmHg 37%

16 August, Sunday

Time Temperature Precipitation Wind Pressure Humidity
00:00 +35°C° 0 mm 2 mps 712 mmHg 39%
01:00 +35°C° 0 mm 3 mps 711 mmHg 42%
02:00 +34°C° 0 mm 4 mps 711 mmHg 45%
03:00 +33°C° 0 mm 5 mps 711 mmHg 47%
04:00 +33°C° 0.1 mm 5 mps 711 mmHg 49%
05:00 +32°C° 0.1 mm 6 mps 711 mmHg 51%
06:00 +32°C° 0.1 mm 6 mps 712 mmHg 53%
07:00 +33°C° 0 mm 6 mps 712 mmHg 50%
08:00 +34°C° 0 mm 6 mps 713 mmHg 47%
09:00 +35°C° 0 mm 6 mps 713 mmHg 44%
10:00 +36°C° 0 mm 6 mps 713 mmHg 40%
11:00 +38°C° 0 mm 6 mps 713 mmHg 37%
12:00 +39°C° 0 mm 5 mps 712 mmHg 34%
13:00 +39°C° 0 mm 5 mps 712 mmHg 32%
14:00 +40°C° 0 mm 4 mps 711 mmHg 30%
15:00 +41°C° 0 mm 4 mps 710 mmHg 28%
16:00 +40°C° 0 mm 3 mps 710 mmHg 28%
17:00 +40°C° 0 mm 2 mps 710 mmHg 28%
18:00 +39°C° 0 mm 1 mps 710 mmHg 28%
19:00 +39°C° 0.2 mm 1 mps 711 mmHg 30%
20:00 +38°C° 0.2 mm 2 mps 711 mmHg 32%
21:00 +37°C° 0.2 mm 2 mps 712 mmHg 34%
22:00 +37°C° 0.2 mm 2 mps 712 mmHg 37%
23:00 +36°C° 0.2 mm 3 mps 712 mmHg 39%
Show more